When you browse on this site, cookies collect data to enhance your experience and personalize the content and advertising you see.
Visit our Privacy Policy to learn more. By continuing to use the site, you agree to this use of cookies and data.
  • Em Portugal
  • Lista de países
  • Para 7 dias
  • Temperatura da água
  • Mapas de satélite
  • Mapa do tempo
  • Widgets de tempo
  • user-avatar
    Iniciar Sessão

    Previsão horária em Stepanakert

    Hoje, 22 Maio, Quarta-feira

    Tempo Temperatura Precipitação Vento Pressão Humidade
    00:00 +12°C° 0 mm 1 m/s 696 mmHg 77%
    01:00 +12°C° 0 mm 1 m/s 695 mmHg 77%
    02:00 +12°C° 0 mm 1 m/s 695 mmHg 77%
    03:00 +12°C° 0 mm 1 m/s 695 mmHg 77%
    04:00 +13°C° 0 mm 1 m/s 695 mmHg 75%
    05:00 +13°C° 0 mm 1 m/s 695 mmHg 73%
    06:00 +13°C° 0 mm 0 m/s 695 mmHg 71%
    07:00 +16°C° 0 mm 1 m/s 695 mmHg 66%
    08:00 +18°C° 0 mm 1 m/s 695 mmHg 61%
    09:00 +18°C° 0 mm 2 m/s 695 mmHg 56%
    10:00 +19°C° 0 mm 2 m/s 695 mmHg 55%
    11:00 +20°C° 0 mm 3 m/s 695 mmHg 54%
    12:00 +21°C° 0 mm 3 m/s 694 mmHg 53%
    13:00 +22°C° 0.1 mm 3 m/s 694 mmHg 54%
    14:00 +22°C° 0.1 mm 3 m/s 693 mmHg 55%
    15:00 +22°C° 0.1 mm 3 m/s 693 mmHg 56%
    16:00 +21°C° 0.6 mm 2 m/s 693 mmHg 61%
    17:00 +21°C° 0.6 mm 1 m/s 692 mmHg 66%
    18:00 +20°C° 0.6 mm 1 m/s 692 mmHg 72%
    19:00 +19°C° 0.2 mm 1 m/s 692 mmHg 75%
    20:00 +18°C° 0.2 mm 1 m/s 692 mmHg 78%
    21:00 +16°C° 0.2 mm 2 m/s 693 mmHg 81%
    22:00 +16°C° 0 mm 2 m/s 692 mmHg 81%
    23:00 +15°C° 0 mm 2 m/s 692 mmHg 81%

    Amanhã, 23 Maio, Quinta-feira

    Tempo Temperatura Precipitação Vento Pressão Humidade
    00:00 +15°C° 0 mm 2 m/s 692 mmHg 82%
    01:00 +15°C° 0 mm 1 m/s 692 mmHg 81%
    02:00 +14°C° 0 mm 1 m/s 692 mmHg 81%
    03:00 +14°C° 0 mm 1 m/s 692 mmHg 80%
    04:00 +15°C° 0 mm 1 m/s 692 mmHg 79%
    05:00 +16°C° 0 mm 1 m/s 692 mmHg 77%
    06:00 +18°C° 0 mm 1 m/s 692 mmHg 76%
    07:00 +19°C° 0 mm 1 m/s 692 mmHg 70%
    08:00 +20°C° 0 mm 2 m/s 692 mmHg 65%
    09:00 +21°C° 0 mm 2 m/s 692 mmHg 60%
    10:00 +23°C° 0.1 mm 2 m/s 692 mmHg 59%
    11:00 +24°C° 0.1 mm 3 m/s 692 mmHg 58%
    12:00 +25°C° 0.1 mm 3 m/s 691 mmHg 57%
    13:00 +24°C° 0.5 mm 3 m/s 691 mmHg 59%
    14:00 +24°C° 0.5 mm 3 m/s 690 mmHg 62%
    15:00 +22°C° 0.5 mm 3 m/s 690 mmHg 65%
    16:00 +21°C° 0.7 mm 2 m/s 690 mmHg 70%
    17:00 +20°C° 0.7 mm 2 m/s 690 mmHg 76%
    18:00 +20°C° 0.7 mm 1 m/s 689 mmHg 81%
    19:00 +20°C° 0.9 mm 1 m/s 690 mmHg 83%
    20:00 +19°C° 0.9 mm 1 m/s 691 mmHg 86%
    21:00 +18°C° 0.9 mm 1 m/s 691 mmHg 89%
    22:00 +18°C° 0.2 mm 1 m/s 691 mmHg 89%
    23:00 +16°C° 0.2 mm 1 m/s 691 mmHg 89%

    Depois de amanhã, 24 Maio, Sexta-feira

    Tempo Temperatura Precipitação Vento Pressão Humidade
    00:00 +14°C° 0.2 mm 0 m/s 691 mmHg 89%
    01:00 +15°C° 0 mm 1 m/s 691 mmHg 89%
    02:00 +15°C° 0 mm 1 m/s 691 mmHg 89%
    03:00 +15°C° 0 mm 1 m/s 691 mmHg 90%
    04:00 +15°C° 0 mm 1 m/s 691 mmHg 87%
    05:00 +16°C° 0 mm 1 m/s 692 mmHg 84%
    06:00 +18°C° 0 mm 1 m/s 692 mmHg 82%
    07:00 +19°C° 0 mm 1 m/s 692 mmHg 77%
    08:00 +19°C° 0 mm 2 m/s 692 mmHg 73%
    09:00 +20°C° 0 mm 2 m/s 693 mmHg 69%
    10:00 +23°C° 0.1 mm 2 m/s 692 mmHg 65%
    11:00 +24°C° 0.1 mm 3 m/s 692 mmHg 62%
    12:00 +25°C° 0.1 mm 3 m/s 692 mmHg 59%
    13:00 +25°C° 0.2 mm 3 m/s 692 mmHg 59%
    14:00 +25°C° 0.2 mm 3 m/s 692 mmHg 59%
    15:00 +25°C° 0.2 mm 2 m/s 691 mmHg 59%
    16:00 +24°C° 0.2 mm 2 m/s 691 mmHg 64%
    17:00 +24°C° 0.2 mm 2 m/s 691 mmHg 69%
    18:00 +23°C° 0.2 mm 2 m/s 691 mmHg 74%
    19:00 +20°C° 0.1 mm 2 m/s 692 mmHg 77%
    20:00 +19°C° 0.1 mm 2 m/s 692 mmHg 81%
    21:00 +18°C° 0.1 mm 2 m/s 692 mmHg 84%
    22:00 +18°C° 0.1 mm 2 m/s 693 mmHg 83%
    23:00 +17°C° 0.1 mm 2 m/s 693 mmHg 81%

    25 Maio, Sábado

    Tempo Temperatura Precipitação Vento Pressão Humidade
    00:00 +17°C° 0.1 mm 2 m/s 693 mmHg 80%
    01:00 +17°C° 0 mm 2 m/s 693 mmHg 79%
    02:00 +16°C° 0 mm 1 m/s 693 mmHg 78%
    03:00 +16°C° 0 mm 1 m/s 693 mmHg 77%
    04:00 +18°C° 0 mm 1 m/s 693 mmHg 76%
    05:00 +19°C° 0 mm 1 m/s 693 mmHg 74%
    06:00 +20°C° 0 mm 1 m/s 693 mmHg 72%
    07:00 +21°C° 0 mm 1 m/s 693 mmHg 67%
    08:00 +23°C° 0 mm 2 m/s 694 mmHg 61%
    09:00 +25°C° 0 mm 2 m/s 694 mmHg 56%
    10:00 +26°C° 0 mm 2 m/s 694 mmHg 54%
    11:00 +27°C° 0 mm 2 m/s 693 mmHg 51%
    12:00 +29°C° 0 mm 3 m/s 693 mmHg 49%
    13:00 +29°C° 0 mm 3 m/s 692 mmHg 48%
    14:00 +29°C° 0 mm 3 m/s 692 mmHg 48%
    15:00 +30°C° 0 mm 3 m/s 691 mmHg 47%
    16:00 +29°C° 0 mm 2 m/s 691 mmHg 54%
    17:00 +27°C° 0 mm 2 m/s 691 mmHg 60%
    18:00 +26°C° 0 mm 1 m/s 691 mmHg 67%
    19:00 +25°C° 0.1 mm 2 m/s 691 mmHg 71%
    20:00 +23°C° 0.1 mm 2 m/s 692 mmHg 76%
    21:00 +20°C° 0.1 mm 2 m/s 692 mmHg 80%
    22:00 +20°C° 0 mm 2 m/s 692 mmHg 75%
    23:00 +20°C° 0 mm 2 m/s 692 mmHg 71%

    26 Maio, Domingo

    Tempo Temperatura Precipitação Vento Pressão Humidade
    00:00 +20°C° 0 mm 2 m/s 691 mmHg 66%
    01:00 +20°C° 0 mm 2 m/s 691 mmHg 65%
    02:00 +19°C° 0 mm 2 m/s 691 mmHg 63%
    03:00 +19°C° 0 mm 2 m/s 690 mmHg 61%
    04:00 +20°C° 0 mm 2 m/s 690 mmHg 61%
    05:00 +20°C° 0 mm 2 m/s 690 mmHg 60%
    06:00 +21°C° 0 mm 1 m/s 690 mmHg 60%
    07:00 +23°C° 0 mm 2 m/s 691 mmHg 57%
    08:00 +25°C° 0 mm 2 m/s 691 mmHg 54%
    09:00 +27°C° 0 mm 2 m/s 691 mmHg 51%
    10:00 +28°C° 0 mm 2 m/s 691 mmHg 48%
    11:00 +29°C° 0 mm 3 m/s 690 mmHg 46%
    12:00 +30°C° 0 mm 3 m/s 690 mmHg 44%
    13:00 +29°C° 0 mm 3 m/s 690 mmHg 47%
    14:00 +29°C° 0 mm 3 m/s 689 mmHg 51%
    15:00 +28°C° 0 mm 3 m/s 689 mmHg 55%
    16:00 +27°C° 0.2 mm 3 m/s 689 mmHg 61%
    17:00 +25°C° 0.2 mm 3 m/s 689 mmHg 68%
    18:00 +24°C° 0.2 mm 3 m/s 690 mmHg 74%
    19:00 +21°C° 0.2 mm 2 m/s 690 mmHg 77%
    20:00 +20°C° 0.2 mm 2 m/s 691 mmHg 81%
    21:00 +19°C° 0.2 mm 2 m/s 691 mmHg 84%
    22:00 +18°C° 0 mm 2 m/s 691 mmHg 84%
    23:00 +18°C° 0 mm 2 m/s 691 mmHg 84%

    27 Maio, Segunda-feira

    Tempo Temperatura Precipitação Vento Pressão Humidade
    00:00 +18°C° 0 mm 2 m/s 692 mmHg 84%
    01:00 +18°C° 0 mm 2 m/s 692 mmHg 83%
    02:00 +18°C° 0 mm 1 m/s 692 mmHg 83%
    03:00 +18°C° 0 mm 1 m/s 692 mmHg 83%
    04:00 +19°C° 0 mm 1 m/s 693 mmHg 82%
    05:00 +19°C° 0 mm 1 m/s 693 mmHg 80%
    06:00 +20°C° 0 mm 1 m/s 694 mmHg 79%
    07:00 +21°C° 0 mm 1 m/s 694 mmHg 74%
    08:00 +21°C° 0 mm 2 m/s 694 mmHg 69%
    09:00 +23°C° 0 mm 2 m/s 694 mmHg 64%
    10:00 +24°C° 0 mm 3 m/s 694 mmHg 63%
    11:00 +24°C° 0 mm 3 m/s 694 mmHg 61%
    12:00 +25°C° 0 mm 3 m/s 694 mmHg 60%
    13:00 +25°C° 0.1 mm 3 m/s 694 mmHg 59%
    14:00 +26°C° 0.1 mm 3 m/s 693 mmHg 58%
    15:00 +26°C° 0.1 mm 3 m/s 693 mmHg 56%
    16:00 +25°C° 0 mm 3 m/s 693 mmHg 60%
    17:00 +25°C° 0 mm 2 m/s 693 mmHg 64%
    18:00 +24°C° 0 mm 2 m/s 693 mmHg 67%
    19:00 +23°C° 0.1 mm 2 m/s 694 mmHg 73%
    20:00 +21°C° 0.1 mm 1 m/s 694 mmHg 79%
    21:00 +19°C° 0.1 mm 1 m/s 694 mmHg 85%
    22:00 +19°C° 0 mm 1 m/s 694 mmHg 86%
    23:00 +19°C° 0 mm 1 m/s 694 mmHg 86%
    Mostrar mais